Marianna, WV

8:26 AM EST on February 07, 2016 (GMT -0500)
Pineville

Weather History for KI16 - October, 2012

Change the Weather History Date:

Friday, October 19, 2012

  Actual Average (KBKW) Record (KBKW)
Temperature  
Mean Temperature 58 °F 52 °F  
Max Temperature 70 °F 63 °F 81 °F (1938)
Min Temperature 45 °F 42 °F 19 °F (1930)
Degree Days  
Heating Degree Days 8 13  
Month to date heating degree days 199  
Since 1 July heating degree days 333  
Cooling Degree Days 0 0  
Month to date cooling degree days 2  
Year to date cooling degree days 552  
Growing Degree Days 8 (Base 50)    
Moisture  
Dew Point 43 °F    
Average Humidity 67    
Maximum Humidity 100    
Minimum Humidity 27    
Precipitation  
Precipitation 0.00 in 0.08 in 1.55 in (1906)
Month to date precipitation 1.53  
Year to date precipitation 34.20  
Snow  
Snow 0.00 in - - ()
Month to date snowfall  
Since 1 September snowfall  
Snow Depth -    
Sea Level Pressure  
Sea Level Pressure 29.79 in    
Wind  
Wind Speed - (North)    
Max Wind Speed -    
Max Gust Speed -    
Visibility 8 miles    
Events Fog    
T = Trace of Precipitation, MM = Missing Value Source: NWS Daily Summary

Daily Weather History Graph

Daily Weather History Graph

Search for Another Location

Airport or City:

Trip Planner

Search our weather history database for the weather conditions in past years. The results will help you decide how hot, cold, wet, or windy it might be!

Date:

Astronomy

Oct. 19, 2012 Rise Set
Actual Time 7:38 AM EDT 6:42 PM EDT
Civil Twilight 7:12 AM EDT 7:09 PM EDT
Nautical Twilight 6:41 AM EDT 7:39 PM EDT
Astronomical Twilight 6:11 AM EDT 8:10 PM EDT
Moon 12:16 PM EDT (10/19) 10:23 PM EDT (10/19)
Length of Visible Light 11h 57m
Length of Day
11h 04m
Waxing Crescent, 23% of the Moon is Illuminated
Oct 19
Waxing Crescent
Oct 21
First Quarter
Oct 29
Full
Nov 6
Last Quarter
Nov 13
New

Hourly Weather History & Observations

Time (EDT) Temp. Dew Point Humidity Pressure Visibility Wind Dir Wind Speed Gust Speed Precip Events Conditions
2:15 AM 50.2 °F 50.2 °F 100% 29.84 in 10.0 mi North - - N/A   Overcast
2:55 AM 50.5 °F 50.5 °F 100% 29.85 in 10.0 mi North - - N/A   Overcast
3:15 AM 50.5 °F 50.5 °F 100% 29.84 in 10.0 mi North - - N/A   Overcast
3:35 AM 50.2 °F 50.2 °F 100% 29.82 in 10.0 mi North - - N/A   Overcast
3:55 AM 50.2 °F 50.2 °F 100% 29.82 in 7.0 mi North - - N/A   Overcast
4:15 AM 49.5 °F 49.5 °F 100% 29.82 in 3.0 mi North - - N/A   Overcast
4:55 AM 49.3 °F 49.3 °F 100% 29.82 in 0.8 mi North - - N/A   Overcast
5:15 AM 49.1 °F 49.1 °F 100% 29.81 in 0.8 mi North - - N/A   Overcast
5:35 AM 48.6 °F 48.6 °F 100% 29.81 in 1.8 mi North - - N/A   Overcast
5:55 AM 47.8 °F 47.8 °F 100% 29.81 in 0.5 mi North - - N/A Fog Fog
6:15 AM 47.1 °F 47.1 °F 100% 29.80 in 0.8 mi North - - N/A   Overcast
6:35 AM 46.6 °F 46.6 °F 100% 29.80 in 0.8 mi North - - N/A   Overcast
6:55 AM 46.6 °F 46.6 °F 100% 29.81 in 0.2 mi North - - N/A Fog Fog
7:15 AM 46.6 °F 46.6 °F 100% 29.81 in 0.5 mi North - - N/A Fog Fog
7:35 AM 46.2 °F 46.2 °F 100% 29.81 in 0.5 mi North - - N/A Fog Fog
7:55 AM 45.9 °F 45.9 °F 100% 29.82 in 0.2 mi North - - N/A Fog Fog
8:15 AM 45.9 °F 45.9 °F 100% 29.81 in 0.2 mi North - - N/A Fog Fog
8:55 AM 46.8 °F 46.8 °F 100% 29.82 in 0.2 mi North - - N/A Fog Fog
9:15 AM 47.3 °F 47.3 °F 100% 29.82 in 2.5 mi North - - N/A   Overcast
9:35 AM 49.1 °F 49.1 °F 100% 29.82 in 10.0 mi North - - N/A   Scattered Clouds
9:55 AM 52.0 °F 52.0 °F 100% 29.82 in 10.0 mi North - - N/A   Clear
10:15 AM 54.7 °F 52.9 °F 94% 29.82 in 10.0 mi North - - N/A   Clear
10:35 AM 57.9 °F 51.8 °F 80% 29.80 in 10.0 mi North - - N/A   Clear
10:55 AM 60.3 °F 47.3 °F 62% 29.80 in 10.0 mi North - - N/A   Clear
11:15 AM 61.5 °F 44.4 °F 53% 29.79 in 10.0 mi North - - N/A   Clear
11:35 AM 62.4 °F 42.6 °F 48% 29.79 in 10.0 mi North - - N/A   Clear
11:55 AM 64.0 °F 40.5 °F 42% 29.79 in 10.0 mi North - - N/A   Clear
12:35 PM 65.5 °F 36.5 °F 34% 29.77 in 10.0 mi North - - N/A   Clear
12:55 PM 66.0 °F 35.4 °F 32% 29.76 in 10.0 mi North - - N/A   Clear
1:15 PM 66.4 °F 35.8 °F 32% 29.75 in 10.0 mi North - - N/A   Clear
1:35 PM 66.2 °F 34.5 °F 31% 29.75 in 10.0 mi North - - N/A   Clear
1:55 PM 68.0 °F 34.9 °F 29% 29.73 in 10.0 mi North - - N/A   Clear
2:15 PM 68.9 °F 35.1 °F 29% 29.73 in 10.0 mi North - - N/A   Scattered Clouds
2:35 PM 68.7 °F 34.0 °F 28% 29.72 in 10.0 mi North - - N/A   Scattered Clouds
3:15 PM 69.1 °F 33.8 °F 27% 29.71 in 10.0 mi North - - N/A   Scattered Clouds
3:35 PM 70.0 °F 34.9 °F 28% 29.71 in 10.0 mi North - - N/A   Scattered Clouds
3:55 PM 69.8 °F 34.3 °F 27% 29.70 in 10.0 mi North - - N/A   Scattered Clouds
4:15 PM 68.4 °F 34.0 °F 28% 29.70 in 10.0 mi North - - N/A   Mostly Cloudy
5:15 PM 66.4 °F 34.0 °F 30% 29.70 in 10.0 mi North - - N/A   Scattered Clouds
5:35 PM 65.5 °F 34.2 °F 31% 29.71 in 10.0 mi North - - N/A   Scattered Clouds
5:55 PM 64.8 °F 35.2 °F 33% 29.72 in 10.0 mi North - - N/A   Mostly Cloudy
6:15 PM 63.1 °F 37.4 °F 39% 29.72 in 10.0 mi North - - N/A   Overcast
6:55 PM 59.2 °F 43.3 °F 56% 29.74 in 10.0 mi North - - N/A   Overcast
7:15 PM 57.9 °F 43.0 °F 58% 29.75 in 10.0 mi North - - N/A   Overcast
7:55 PM 58.5 °F 43.5 °F 58% 29.76 in 10.0 mi North - - N/A   Overcast
8:15 PM 60.1 °F 42.8 °F 53% 29.77 in 10.0 mi North - - N/A   Overcast
8:35 PM 58.5 °F 41.9 °F 54% 29.78 in 10.0 mi North - - N/A   Overcast
8:55 PM 59.9 °F 40.1 °F 48% 29.79 in 10.0 mi North - - N/A   Overcast
9:15 PM 59.2 °F 40.3 °F 50% 29.80 in 10.0 mi North - - N/A   Overcast
9:35 PM 58.1 °F 41.0 °F 53% 29.82 in 10.0 mi North - - N/A   Overcast
10:15 PM 56.7 °F 41.4 °F 57% 29.83 in 10.0 mi North - - N/A   Overcast
10:35 PM 55.8 °F 41.9 °F 60% 29.83 in 10.0 mi North - - N/A   Overcast
10:55 PM 55.4 °F 41.9 °F 60% 29.83 in 10.0 mi North - - N/A   Overcast
11:15 PM 54.0 °F 43.7 °F 68% 29.83 in 10.0 mi North - - N/A   Overcast
11:35 PM 52.0 °F 44.1 °F 74% 29.84 in 10.0 mi North - - N/A   Overcast
11:55 PM 51.4 °F 45.1 °F 79% 29.83 in 10.0 mi North - - N/A   Overcast